Powrót do katalogu

COSMOS 2251 DEB

AktywnyLEO
NORAD 33894·DEBRIS·🇷🇺 Russia

Wystrzelony Jun 16, 1993 z Plesetsk Cosmodrome

Loading…

Następne Przeloty (najbliższe 24 godziny)

TLE

ŚwieżeSource: Space-Track

Epoka: Sep 14, 2026, 10:17 UTC

1 33894U 93036CX  26257.42872270  .00000862  00000-0  90111-3 0  9993
2 33894  73.7635 282.3866 0568798 162.9056 199.2103 13.21990221843502

Śledź COSMOS 2251 DEB w czasie rzeczywistym z AllMySat

Download on the App Store